Regional Weather Roundup
Issued by NWS

Home | Current Version | Previous Version | Text Only | Print | Product List | Glossary On
Versions: 1 2 3 4 5 6 7 8 9 10 11 12 13 14 15 16 17 18 19 20 21 22 23 24 25 26 27 28
000
ASUS45 KPSR 251410
RWRAZ

ARIZONA HOURLY REGIONAL WEATHER ROUNDUP
NATIONAL WEATHER SERVICE PHOENIX AZ
700 AM MST MON JUL 25 2016

NOTE: FAIR INDICATES FEW OR NO CLOUDS BELOW 12,000 FEET WITH NO
SIGNIFICANT WEATHER AND/OR OBSTRUCTIONS TO VISIBILITY.

AZZ001>003-036-251500-
NORTHWEST ARIZONA

CITY           SKY/WX    TMP DP  RH WIND       PRES   REMARKS
BULLHEAD CITY  SUNNY     90  63  40 SW6       29.86R
KINGMAN        SUNNY     81  53  37 SE5       30.07R
$$

AZZ004>008-015-016-018-251500-
NORTH CENTRAL ARIZONA

CITY           SKY/WX    TMP DP  RH WIND       PRES   REMARKS
GRAND CANYON   SUNNY     61  50  67 CALM      30.34R
WILLIAMS       SUNNY     61  52  72 S6        30.41R
PRESCOTT       SUNNY     74  57  55 SE10      30.22R
FLAGSTAFF      SUNNY     63  51  65 SW5       30.36R
PAYSON         SUNNY     73  48  40 CALM      30.27R
PAGE           SUNNY     78  46  32 CALM      30.13R
$$

AZZ009>014-017-251500-
NORTHEAST ARIZONA

CITY           SKY/WX    TMP DP  RH WIND       PRES   REMARKS
WINSLOW        SUNNY     71  50  47 E3        30.21R
SAINT JOHNS    PTSUNNY   69  53  56 CALM      30.27R
WINDOW ROCK    CLOUDY    70  53  54 CALM      30.35R
SHOW LOW       MOSUNNY   68  48  49 S13       30.32S
$$

AZZ023-251500-
GREATER PHOENIX AREA

CITY           SKY/WX    TMP DP  RH WIND       PRES   REMARKS
PHOENIX        MOSUNNY   90  62  39 CALM      29.94R
BUCKEYE        SUNNY     86  61  42 NW5       29.97R
GLENDALE       MOSUNNY   90  61  37 S3        29.96R
LUKE AFB       SUNNY     91  63  39 N8        29.94R
DEER VALLEY    SUNNY     88  60  38 CALM      29.97R
SCOTTSDALE     SUNNY     89  60  37 S3        29.99R
MESA-FALCON    MOSUNNY  N/A N/A N/A SE6       29.95R
MESA-GATEWAY   MOSUNNY   84  61  45 SE7       29.98R
$$

AZZ027-028-251500-
SOUTHWEST MARICOPA COUNTY AND PINAL COUNTY

CITY           SKY/WX    TMP DP  RH WIND       PRES   REMARKS
CASA GRANDE    PTSUNNY   88  61  40 E6        29.99R
$$

AZZ503-504-507>509-251500-
SOUTHEAST ARIZONA

CITY           SKY/WX    TMP DP  RH WIND       PRES   REMARKS
TUCSON         CLOUDY    82  58  43 S7        30.07R
DAVIS-MONTHAN  CLOUDY    80  60  49 S7        30.06R
RYAN FIELD     SUNNY     82  57  42 E7        30.05R
NOGALES        CLOUDY    72  61  68 NE3       30.16R
SIERRA VISTA   CLOUDY    73  56  56 S3        30.22R
DOUGLAS        CLOUDY    69  64  84 CALM      30.18R
SAFFORD        PTSUNNY   78  57  48 CALM      30.08R
$$

AZZ020-021-025-026-031-251500-
SOUTHWEST ARIZONA

CITY           SKY/WX    TMP DP  RH WIND       PRES   REMARKS
YUMA           PTSUNNY   87  70  56 S6        29.89R
$$

CAZ031-033-041-043-047-048-061-251500-
SOUTHERN CALIFORNIA

CITY           SKY/WX    TMP DP  RH WIND       PRES   REMARKS
DOWNTOWN L.A.  SUNNY     70  66  87 CALM      29.93R
L.A. AIRPORT   MOSUNNY   70  65  84 SW3       29.94R
SAN DIEGO      PTSUNNY   69  66  90 CALM      29.97R
BURBANK        SUNNY     70  57  63 CALM      29.95R
ONTARIO        MOSUNNY   72  61  68 CALM      29.97R
RIVERSIDE      SUNNY     73  62  68 CALM      29.97R
PALM SPRINGS   MOSUNNY   87  49  26 CALM      29.91R
EL CENTRO NAS  CLOUDY    85  74  69 E6        29.87R
IMPERIAL       CLOUDY    87  76  69 SE10      29.85R
BLYTHE         SUNNY     87  70  56 S16       29.88R
NEEDLES        MOSUNNY   93  63  36 CALM      29.88R
$$

NVZ020-UTZ003-251500-
SOUTHERN NEVADA-UTAH

CITY           SKY/WX    TMP DP  RH WIND       PRES   REMARKS
LAS VEGAS      MOSUNNY   90  34  13 VRB5      29.88R
SALT LAKE CITY MOSUNNY   76  43  30 SE7       30.07R
$$

NMZ009-TXZ055-251500-
NEW MEXICO-WEST TEXAS

CITY           SKY/WX    TMP DP  RH WIND       PRES   REMARKS
ALBUQUERQUE    CLOUDY    76  52  43 CALM      30.27R
EL PASO        MOSUNNY   82  55  39 N6        30.10R
$$


........................KEY........................
SKY/WX - SKY CONDITION/WEATHER
TMP    - TEMPERATURE IN FAHRENHEIT
DP     - DEW POINT IN FAHRENHEIT
RH     - RELATIVE HUMIDITY IN PERCENT
WIND   - DIRECTION AND SPEED IN MILES PER HOUR (MPH)
VRB    - VARIABLE WIND DIRECTION
PRES   - MEAN SEA LEVEL PRESSURE IN INCHES OF MERCURY
         F - FALLING PRESSURE   R - RISING PRESSURE
         S - STEADY PRESSURE
VSB    - VISIBILITY IN MILES
HX     - HEAT INDEX IN FAHRENHEIT
WCI    - WIND CHILL INDEX IN FAHRENHEIT
TC     - TEMPERATURE IN CELSIUS WHICH IS ALSO KNOWN AS
         TEMPERATURE IN CENTIGRADE
AFB    - AIR FORCE BASE
         LUKE AFB IS LUKE AIR FORCE BASE
         DAVIS-MONTHAN IS DAVIS-MONTHAN AIR FORCE BASE
NAS    - NAVAL AIR STATION
         EL CENTRO NAS IS EL CENTRO NAVAL AIR STATION
N/A    - NOT AVAILABLE





USA.gov is the U.S. government's official web portal to all federal, state and local government web resources and services.